User: anonymous   Login
Location: Unspecified
(0.0000°N, 0.0000°E)
Time: 04:32:56
(UTC+00:00)
Language:

STARLINK-4169 - Orbit

View from above orbital plane
View from above orbital plane
View from above satellite
View from above satellite

Ground track
Ground track

The orbit is defined by the following mean orbital elements,

1 53280U          26145.31576902 +.00000000 +00000-0 +14953-4 0 00008
2 53280  53.2124 154.8076 0001532  89.4943 270.6225 15.08835720    09
Epoch (UTC): 25 May 2026 07:34:42
Eccentricity: 0.0001532
inclination: 53.2124°
perigee height: 539 km
apogee height: 541 km
right ascension of ascending node: 154.8076°
argument of perigee: 89.4943°
revolutions per day: 15.08835720
mean anomaly at epoch: 270.6225°

The dashed part of the orbit path shows where the satellite is in the earth's shadow,  

DLR